KMMI

Details ICAO KMMI (MMI)
Name MC MINN CO
Region United States
Timezone America/New_York (UTC-4.0)
Plans Departing 6
Arriving 4
Stats Elevation 858 ft / 262 m (AMSL)
Location 35.397309° -84.562583°
Runways 1
Magnetic Variation 5.283° W
Sunrise 2018-05-26 10:28:21 UTC / 2018-05-26 06:28:21 Local
Sunset 2018-05-27 00:45:10 UTC / 2018-05-26 20:45:10 Local
Advertisement - Login to hide

Runways

ID Width Length Bearing (true) Bearing (mag) Surface Threshold Offset Overrun Length
02 75 ft / 23 m 5,010 ft / 1,527 m 18.52° 23.80° Asphalt 0 ft / 0 m 0 ft / 0 m
20 75 ft / 23 m 5,010 ft / 1,527 m 198.52° 203.80° Asphalt 300 ft / 91 m 0 ft / 0 m

Map

Weather


0- 5 10 15 20 25 30 35+ Temperature / ° C

Clouds and Precipitation
Forecast for 2018-05-27 00:00 UTC. Updated 5 hours ago

Ground ~20,000 ft ~40,000 ft Winds

METAR

KMMI 270355Z AUTO 21008G22KT 170V240 2SM BR FEW003 SCT016 BKN035 21/20 A2998 RMK A01 P0012

TAF

Not found

Frequencies

Recorded 125.42 MHz AWOS 3
Approach 123.90 MHz KNOXVILLE APP/DEP
Unicom 122.80 MHz CTAF/UNICOM
Warning: Do not use this data for real-world aviation or navigation. No guarantee of current accuracy is given.